Zurück zum Katalog

BREEZE-M DEB

LostHEO
NORAD 38563·DEBRIS·🇷🇺 Russia

Gestartet Feb 28, 2006 von Baikonur Cosmodrome

Loading…

Nächste Überflüge (nächste 24 Stunden)

TLE

VeraltetSource: Space-Track

Epoche: Feb 28, 2023, 21:29 UTC

1 38563U 06006DD  23059.89525119  .00007037  00000-0  93838-2 0  9996
2 38563  51.6786 259.3017 5003788 138.1333 273.5847  5.39799049284892

Verfolge BREEZE-M DEB in Echtzeit mit AllMySat

Download on the App Store